Home   Weather   Norwalk   Past weeks

Flag for USA Past Weather in Norwalk, California, USA — Yesterday and Last 2 Weeks

Now
64 °F

Clear.


Feels Like: 64 °F
Forecast: 61 / 83 °F
Wind: 7 mph from Southeast

Location: Fullerton Municipal Airport

Current Time: Apr 26, 2017 at 10:30:30 pm

Latest Report: Apr 26, 2017 at 9:53 pm


Visibility: 10 mi

Pressure: 29.83 "Hg

Humidity: 81%

Dew Point: 58 °F

Location of NorwalkLocation

Past Weather in Norwalk — Graph

°F

Norwalk Temperature Yesterday

Maximum temperature yesterday: 77 °F (at 12:53 pm)
Minimum temperature yesterday: 60 °F (at 1:53 am)
Average temperature yesterday: 66 °F

High & Low Weather Summary for the Past Weeks

 TemperatureHumidityPressure
High91 °F (Apr 21, 3:53 pm)93% (Apr 18, 9:34 pm)30.12 "Hg (Apr 18, 9:34 pm)
Low50 °F (Apr 15, 5:53 am)19% (Apr 21, 4:53 pm)29.80 "Hg (Apr 22, 3:53 pm)
Average67 °F62%29.96 "Hg
* Reported Apr 11 8:53 pm — Apr 26 8:53 pm, Norwalk, Weather by CustomWeather, © 2017

Note: Actual official high and low records may vary slightly from our data, if they occured in-between our weather recording intervals... More about our weather records

Advertising

Norwalk Weather History for the Previous 24 Hours

Scroll right to see more
 ConditionsComfort  
Time TempWeatherWind HumidityBarometerVisibility
8:53 pm
Wed, Apr 26
64 °FClear.6 mph78%29.83 "Hg10 mi
7:53 pm66 °FClear.6 mph73%29.81 "Hg10 mi
6:53 pm68 °FSunny.7 mph65%29.82 "Hg10 mi
5:53 pm71 °FSunny.8 mph59%29.82 "Hg10 mi
4:53 pm75 °FSunny.8 mph50%29.83 "Hg10 mi
3:53 pm72 °FSunny.6 mph52%29.83 "Hg10 mi
2:53 pm73 °FSunny.9 mph46%29.85 "Hg10 mi
1:53 pm75 °FSunny.9 mph40%29.86 "Hg10 mi
12:53 pm76 °FSunny.5 mph45%29.87 "Hg10 mi
11:53 am75 °FSunny.7 mph48%29.89 "Hg10 mi
10:53 am73 °FSunny.5 mph48%29.89 "Hg10 mi
9:53 am69 °FSunny.3 mph55%29.89 "Hg10 mi
8:53 am66 °FSunny.No wind65%29.90 "Hg10 mi
7:53 am63 °FSunny.3 mph75%29.89 "Hg10 mi
6:53 am60 °FSunny.No wind75%29.88 "Hg10 mi
5:53 am59 °FClear.5 mph78%29.87 "Hg10 mi
4:53 am60 °FClear.No wind78%29.87 "Hg10 mi
3:53 am60 °FClear.6 mph80%29.87 "Hg10 mi
2:53 am61 °FClear.6 mph78%29.88 "Hg10 mi
1:53 am61 °FClear.5 mph75%29.88 "Hg10 mi
12:53 am62 °FClear.6 mph73%29.89 "Hg10 mi
11:53 pm
Tue, Apr 25
63 °FClear.6 mph68%29.89 "Hg10 mi
10:53 pm64 °FClear.7 mph63%29.90 "Hg10 mi
Weather by CustomWeather, © 2017

See weather overviewHow to use our weather pages